FW4407 Weather Reports


Display with metric or nautical units.
time (UTC)temp
F
wind
direction
speed
MPH
gust
MPH
rain 1hr
in
rain 24hr
in
rain mn
in
humidity
%
barometer
mb
20260831014018 77 130 0.0 5.0 0.00 0.00 0.00 52 1016.6
20260831013047 77 0.0 0.0 0.00 0.00 0.00 56 1016.6
20260831012019 78 37 0.0 2.0 0.00 0.00 0.00 54 1016.7
20260831011026 78 0.0 0.0 0.00 0.00 0.00 53 1016.7
20260831010018 78 123 1.0 5.0 0.00 0.00 0.00 52 1016.8
20260831005027 77 128 4.0 8.0 0.00 0.00 0.00 52 1016.8
20260831004019 77 129 2.0 8.0 0.00 0.00 0.00 55 1016.9
20260831003027 77 128 2.0 8.0 0.00 0.00 0.00 55 1017.0
20260831002020 77 0.0 0.0 0.00 0.00 0.00 57 1017.2
20260831001026 77 0.0 0.0 0.00 0.00 0.00 57 1017.1
20260831000018 77 0.0 0.0 0.00 0.00 0.00 56 1017.1
20260830235046 78 0.0 0.0 0.00 0.00 0.00 56 1017.0
20260830234019 78 0.0 0.0 0.00 0.00 0.00 55 1017.1
20260830233027 78 0.0 0.0 0.00 0.00 0.00 54 1017.1
20260830232038 78 0.0 0.0 0.00 0.00 0.00 54 1017.1
20260830231027 78 0.0 0.0 0.00 0.00 0.00 55 1017.2
20260830230018 78 0.0 0.0 0.00 0.00 0.00 54 1017.1
20260830225026 78 357 0.0 2.0 0.00 0.00 0.00 54 1017.1
20260830224040 78 360 0.0 2.0 0.00 0.00 0.00 53 1017.2
20260830223027 78 0.0 0.0 0.00 0.00 0.00 53 1017.2
20260830222018 78 0.0 0.0 0.00 0.00 0.00 52 1017.3
20260830221026 78 9 1.0 5.0 0.00 0.00 0.00 51 1017.4
20260830220018 78 4 0.0 5.0 0.00 0.00 0.00 49 1017.4
20260830215048 78 0.0 0.0 0.00 0.00 0.00 49 1017.4
20260830214019 78 0.0 0.0 0.00 0.00 0.00 50 1017.4
20260830213028 78 0.0 0.0 0.00 0.00 0.00 50 1017.4
20260830212020 78 0.0 0.0 0.00 0.00 0.00 51 1017.4
20260830211027 79 0.0 0.0 0.00 0.00 0.00 50 1017.4
20260830210019 79 0.0 0.0 0.00 0.00 0.00 50 1017.3
20260830205027 80 0.0 0.0 0.00 0.00 0.00 50 1017.2
20260830204041 80 33 0.0 5.0 0.00 0.00 0.00 51 1017.3
20260830203027 80 0.0 0.0 0.00 0.00 0.00 48 1017.2
20260830202019 80 112 0.0 2.0 0.00 0.00 0.00 48 1017.1
20260830201027 80 112 1.0 5.0 0.00 0.00 0.00 47 1017.0
20260830200039 80 0.0 0.0 0.00 0.00 0.00 48 1017.0
20260830195028 80 134 0.0 5.0 0.00 0.00 0.00 48 1017.0
20260830194019 80 139 0.0 2.0 0.00 0.00 0.00 48 1017.0
20260830193027 81 19 0.0 2.0 0.00 0.00 0.00 48 1017.0
20260830192019 81 24 2.0 8.0 0.00 0.00 0.00 48 1016.9
20260830191027 81 11 1.0 5.0 0.00 0.00 0.00 47 1017.0
20260830190019 81 46 1.0 5.0 0.00 0.00 0.00 47 1016.8
20260830185047 81 14 1.0 5.0 0.00 0.00 0.00 50 1016.6
20260830184019 81 0.0 0.0 0.00 0.00 0.00 48 1016.5
20260830183027 82 0.0 0.0 0.00 0.00 0.00 48 1016.4
20260830182019 82 20 1.0 5.0 0.00 0.00 0.00 48 1016.3
20260830181027 82 74 1.0 8.0 0.00 0.00 0.00 47 1016.3
20260830180019 82 13 2.0 5.0 0.00 0.00 0.00 48 1016.2
20260830175047 83 15 1.0 5.0 0.00 0.00 0.00 47 1016.3
20260830174019 83 337 0.0 5.0 0.00 0.00 0.00 46 1016.0
20260830173027 83 124 1.0 5.0 0.00 0.00 0.00 47 1015.9
20260830172019 84 125 1.0 5.0 0.00 0.00 0.00 49 1015.7
20260830171027 84 137 0.0 2.0 0.00 0.00 0.00 48 1015.8
20260830170019 84 0.0 0.0 0.00 0.00 0.00 51 1015.8
20260830165047 85 0.0 0.0 0.00 0.00 0.00 52 1015.9
20260830164019 86 182 0.0 2.0 0.00 0.00 0.00 52 1015.9
20260830163027 87 0.0 0.0 0.00 0.00 0.00 51 1016.0
20260830162019 87 249 0.0 2.0 0.00 0.00 0.00 52 1015.9
20260830161027 88 230 1.0 5.0 0.00 0.00 0.00 51 1016.0
20260830160019 89 186 0.0 2.0 0.00 0.00 0.00 49 1015.8
20260830155027 90 252 2.0 8.0 0.00 0.00 0.00 48 1015.7
20260830154019 91 215 1.0 5.0 0.00 0.00 0.00 45 1015.7
20260830153027 91 322 0.0 5.0 0.00 0.00 0.00 45 1015.7
20260830152019 91 12 0.0 5.0 0.00 0.00 0.00 40 1015.6
20260830151027 91 136 3.0 8.0 0.00 0.00 0.00 41 1015.5
20260830150039 91 9 1.0 5.0 0.00 0.00 0.00 39 1015.7
20260830145027 91 135 2.0 8.0 0.00 0.00 0.00 39 1015.7
20260830144019 91 123 3.0 10.0 0.00 0.00 0.00 40 1015.7
20260830143027 92 57 2.0 5.0 0.00 0.00 0.00 39 1015.7
20260830142019 92 119 1.0 5.0 0.00 0.00 0.00 38 1015.6
20260830141027 91 86 0.0 2.0 0.00 0.00 0.00 39 1015.7
20260830140019 90 204 0.0 2.0 0.00 0.00 0.00 38 1015.7
20260830135027 89 152 2.0 5.0 0.00 0.00 0.00 40 1015.7
20260830134019 88 217 1.0 5.0 0.00 0.00 0.00 41 1015.7
20260830133027 88 119 2.0 8.0 0.00 0.00 0.00 42 1015.7
20260830132019 89 119 4.0 10.0 0.00 0.00 0.00 43 1015.7
20260830131027 89 118 5.0 13.0 0.00 0.00 0.00 41 1015.7
20260830130059 90 129 5.0 10.0 0.00 0.00 0.00 41 1015.6
20260830125027 91 135 3.0 13.0 0.00 0.00 0.00 39 1015.7
20260830124019 92 125 3.0 8.0 0.00 0.00 0.00 38 1015.7
20260830123027 92 62 3.0 13.0 0.00 0.00 0.00 37 1015.9
20260830122019 92 129 4.0 8.0 0.00 0.00 0.00 37 1016.1
20260830121029 92 92 4.0 13.0 0.00 0.00 0.00 37 1016.1
20260830120019 92 11 5.0 13.0 0.00 0.00 0.00 37 1016.1
20260830115027 92 124 2.0 5.0 0.00 0.00 0.00 35 1016.2
20260830114019 91 4 3.0 8.0 0.00 0.00 0.00 36 1016.3
20260830113028 92 6 4.0 10.0 0.00 0.00 0.00 36 1016.3
20260830112019 92 95 0.0 5.0 0.00 0.00 0.00 35 1016.4
20260830111027 92 96 1.0 5.0 0.00 0.00 0.00 35 1016.5
20260830110019 91 180 0.0 5.0 0.00 0.00 0.00 33 1016.4
20260830105047 90 125 0.0 5.0 0.00 0.00 0.00 34 1016.6
20260830104019 91 127 3.0 10.0 0.00 0.00 0.00 36 1016.7
20260830103027 91 107 1.0 5.0 0.00 0.00 0.00 35 1016.7
20260830102019 90 29 1.0 8.0 0.00 0.00 0.00 35 1016.8
20260830101027 90 126 1.0 5.0 0.00 0.00 0.00 35 1017.0
20260830100039 89 82 3.0 10.0 0.00 0.00 0.00 35 1017.0
20260830095047 89 124 2.0 8.0 0.00 0.00 0.00 36 1016.9
20260830094039 89 116 4.0 10.0 0.00 0.00 0.00 36 1017.1
20260830093027 89 130 5.0 13.0 0.00 0.00 0.00 36 1017.1
20260830092019 89 20 3.0 10.0 0.00 0.00 0.00 35 1017.2
20260830091027 89 141 3.0 8.0 0.00 0.00 0.00 36 1017.4
20260830090019 88 71 3.0 8.0 0.00 0.00 0.00 37 1017.3
20260830085027 87 125 3.0 13.0 0.00 0.00 0.00 36 1017.3
20260830084019 86 0.0 0.0 0.00 0.00 0.00 38 1017.3
20260830083046 85 107 0.0 5.0 0.00 0.00 0.00 41 1017.3
20260830082019 85 134 1.0 8.0 0.00 0.00 0.00 42 1017.3
20260830081027 85 135 2.0 8.0 0.00 0.00 0.00 42 1017.3
20260830080018 85 124 3.0 10.0 0.00 0.00 0.00 42 1017.4
20260830075027 85 122 4.0 10.0 0.00 0.00 0.00 42 1017.3
20260830074041 85 138 2.0 10.0 0.00 0.00 0.00 39 1017.4
20260830073027 84 138 2.0 8.0 0.00 0.00 0.00 39 1017.4
20260830072018 83 1 2.0 8.0 0.00 0.00 0.00 41 1017.3
20260830071047 83 117 2.0 8.0 0.00 0.00 0.00 41 1017.3
20260830070019 82 26 3.0 10.0 0.00 0.00 0.00 44 1017.2
20260830065027 82 21 1.0 5.0 0.00 0.00 0.00 43 1017.2
20260830064018 81 12 1.0 5.0 0.00 0.00 0.00 44 1016.9
20260830063027 81 11 2.0 8.0 0.00 0.00 0.00 45 1017.0
20260830062019 80 13 1.0 8.0 0.00 0.00 0.00 45 1016.9
20260830061026 80 3 1.0 5.0 0.00 0.00 0.00 46 1016.9
20260830060018 79 10 0.0 2.0 0.00 0.00 0.00 47 1016.9
20260830055047 78 0.0 0.0 0.00 0.00 0.00 47 1016.9
20260830054020 77 0.0 0.0 0.00 0.00 0.00 50 1016.8
20260830053027 76 0.0 0.0 0.00 0.00 0.00 50 1016.8
20260830052019 75 0.0 0.0 0.00 0.00 0.00 51 1016.8
20260830051027 75 0.0 0.0 0.00 0.00 0.00 52 1016.8
20260830050039 74 0.0 0.0 0.00 0.00 0.00 53 1016.7
20260830045026 74 0.0 0.0 0.00 0.00 0.00 53 1016.7
20260830044019 73 0.0 0.0 0.00 0.00 0.00 53 1016.6
20260830043046 74 0.0 0.0 0.00 0.00 0.00 54 1016.5
20260830042018 74 15 1.0 2.0 0.00 0.00 0.00 54 1016.6
20260830041027 75 2 2.0 5.0 0.00 0.00 0.00 53 1016.5
20260830040021 76 0.0 0.0 0.00 0.00 0.00 51 1016.5
20260830035027 76 126 1.0 8.0 0.00 0.00 0.00 50 1016.3
20260830034018 75 121 4.0 8.0 0.00 0.00 0.00 50 1016.3
20260830033027 75 118 3.0 8.0 0.00 0.00 0.00 50 1016.5
20260830032039 75 151 0.0 5.0 0.00 0.00 0.00 50 1016.3
20260830031026 76 13 1.0 5.0 0.00 0.00 0.00 49 1016.3
20260830030018 76 67 0.0 5.0 0.00 0.00 0.00 49 1016.3
20260830025047 76 126 0.0 5.0 0.00 0.00 0.00 49 1016.3
20260830024018 76 119 1.0 8.0 0.00 0.00 0.00 49 1016.3
20260830023026 76 125 0.0 2.0 0.00 0.00 0.00 49 1016.3
20260830022019 76 130 0.0 5.0 0.00 0.00 0.00 48 1016.3
20260830021029 76 6 2.0 8.0 0.00 0.00 0.00 48 1016.5
20260830020018 76 5 0.0 2.0 0.00 0.00 0.00 48 1016.7
20260830015026 76 125 4.0 8.0 0.00 0.00 0.00 47 1016.6